(151438) = 1997 KL3 = 2002 GL7

Discovered at Desert Eagle on 2002-04-14 by W. K. Y. Yeung.

Orbit

Orbit type: Main Belt

Note: WebGL enabled browser required.

epoch2023-09-13.0
epoch JD2460200.5
perihelion date2023-08-08.32221
perihelion JD2460164.82221
argument of perihelion (°)83.73282
ascending node (°)104.64086
inclination (°)6.25848
eccentricity0.1008857
perihelion distance (AU)2.7524347
Tisserand w.r.t. Jupiter3.2
ΔV w.r.t. Earth (km/sec)10.5
semimajor axis (AU)3.0612733
mean anomaly (°)6.56521
mean daily motion (°/day)0.18401390
aphelion distance (AU)3.370
period (years)5.36
P-vector [x]-0.98360754
P-vector [y]-0.17534186
P-vector [z]0.04208859
Q-vector [x]0.14625799
Q-vector [y]-0.91228398
Q-vector [z]-0.38255267
absolute magnitude15.48
phase slope0.15
uncertainty0
referenceMPO 777918
observations used583
oppositions16
arc length (days)9479
first opposition used1997
last opposition used2023
residual rms (arc-secs)0.75
perturbers coarse indicatorM-v
perturbers precise indicator003Ek
first observation date used1997-05-31.0
last observation date used2023-05-14.0
computer nameMPCLINUX
JD of orbit computation2456937.512664
perihelion JD uncertainty (days)1.5894E-04
argument of perihelion uncertainty (°)4.5074E-05
ascending node uncertainty (°)3.3801E-05
inclination uncertainty (°)4.7647E-06
eccentricity uncertainty 3.5380E-08
perihelion distance uncertainty (AU)1.1325E-07
Minimum Orbit Intersection Distances (in AU)
for orbit epoch: 2460200.5, reference: E2023-UN9
Mercury2.33503
Venus2.03319
Earth1.76132
Mars1.11394
Jupiter1.62023
Saturn5.87589
Uranus15.6679
Neptune26.4922

Observations

586 total observations over interval: 1997 05 31.24416 – 2023 05 14.164312
These data are available for download (format description).

Date (UT) J2000 RA J2000 Dec Magn Location Ref
1997 05 31.24416 15 42 05.90 -12 47 23.9 19.8 V 691 – Steward Observatory, Kitt Peak-Spacewatch MPC 30009
1997 05 31.26779 15 42 04.76 -12 47 23.5 19.9 V 691 – Steward Observatory, Kitt Peak-Spacewatch MPC 30009
1997 05 31.28926 15 42 03.72 -12 47 23.0 20.1 V 691 – Steward Observatory, Kitt Peak-Spacewatch MPC 30009
1997 06 07.20582 15 36 59.27 -12 46 14.3 20.1 V 691 – Steward Observatory, Kitt Peak-Spacewatch MPC 30009
1997 06 07.22714 15 36 58.37 -12 46 14.8 19.9 V 691 – Steward Observatory, Kitt Peak-Spacewatch MPC 30009
1997 06 07.24851 15 36 57.45 -12 46 14.7 20.0 V 691 – Steward Observatory, Kitt Peak-Spacewatch MPC 30009
1997 06 15.17847 15 32 02.52 -12 49 56.6 21.3 V 691 – Steward Observatory, Kitt Peak-Spacewatch MPS 80084
1997 06 15.18244 15 32 02.38 -12 49 56.7 21.3 V 691 – Steward Observatory, Kitt Peak-Spacewatch MPS 80084
1997 06 15.18802 15 32 02.19 -12 49 57.0 21.3 V 691 – Steward Observatory, Kitt Peak-Spacewatch MPS 80084
1997 07 03.20703 15 25 34.37 -13 19 10.1 20.7 V 691 – Steward Observatory, Kitt Peak-Spacewatch MPS 80084
1997 07 03.22885 15 25 34.11 -13 19 13.2 20.4 V 691 – Steward Observatory, Kitt Peak-Spacewatch MPS 80084
1997 07 03.25224 15 25 33.86 -13 19 16.4 20.6 V 691 – Steward Observatory, Kitt Peak-Spacewatch MPS 80084
1997 07 08.17109 15 25 04.45 -13 32 08.3 21.4 V 691 – Steward Observatory, Kitt Peak-Spacewatch MPS 80084
1997 07 08.19279 15 25 04.36 -13 32 11.9 21.1 V 691 – Steward Observatory, Kitt Peak-Spacewatch MPS 80084
1997 07 08.21446 15 25 04.30 -13 32 15.7 20.9 V 691 – Steward Observatory, Kitt Peak-Spacewatch MPS 80084
2001 01 02.31448 06 51 00.91 +22 24 51.0 19.0   704 – Lincoln Laboratory ETS, New Mexico MPS 165037
2001 01 02.33038 06 50 59.97 +22 24 54.3 19.1   704 – Lincoln Laboratory ETS, New Mexico MPS 165037
2001 01 02.34558 06 50 59.09 +22 24 56.6 19.3   704 – Lincoln Laboratory ETS, New Mexico MPS 165037
2002 04 04.42089 13 26 52.08 +01 20 32.5 21.0   608 – Haleakala-AMOS MPS 55096
2002 04 04.43160 13 26 51.53 +01 20 35.7 20.4   608 – Haleakala-AMOS MPS 55096
2002 04 04.44236 13 26 51.05 +01 20 39.5 20.6   608 – Haleakala-AMOS MPS 55096
2002 04 10.30273 13 22 25.40 +01 47 59.8 19.4   704 – Lincoln Laboratory ETS, New Mexico MPS 55096
2002 04 10.32621 13 22 24.39 +01 48 03.8 20.1   704 – Lincoln Laboratory ETS, New Mexico MPS 55096
2002 04 10.33799 13 22 23.72 +01 48 07.7 19.4   704 – Lincoln Laboratory ETS, New Mexico MPS 55096
2002 04 10.34970 13 22 23.19 +01 48 11.8 19.4   704 – Lincoln Laboratory ETS, New Mexico MPS 55096
2002 04 11.32311 13 21 38.59 +01 52 28.0 19.7   704 – Lincoln Laboratory ETS, New Mexico MPS 55096
2002 04 11.33486 13 21 38.00 +01 52 30.3 19.4   704 – Lincoln Laboratory ETS, New Mexico MPS 55096
2002 04 11.34663 13 21 37.40 +01 52 33.6 19.5   704 – Lincoln Laboratory ETS, New Mexico MPS 55096
2002 04 11.35837 13 21 36.88 +01 52 36.9 19.4   704 – Lincoln Laboratory ETS, New Mexico MPS 55096
2002 04 13.30707 13 20 07.67 +02 00 51.3 18.9   644 – Palomar Mountain/NEAT MPS 55096
2002 04 13.32928 13 20 06.60 +02 00 56.8 18.9   644 – Palomar Mountain/NEAT MPS 55096
2002 04 13.35869 13 20 05.22 +02 01 04.2 18.8   644 – Palomar Mountain/NEAT MPS 55096
2002 04 14.21868 13 19 26.07 +02 04 34.2 19.6 V 333 – Desert Eagle Observatory MPS 55889
2002 04 14.25344 13 19 24.41 +02 04 41.9 19.5 V 333 – Desert Eagle Observatory MPS 55889
2002 04 14.27743 13 19 23.25 +02 04 47.8 19.9 V 333 – Desert Eagle Observatory MPS 55889
2002 04 15.22079 13 18 40.40 +02 08 32.8 19.8 V 333 – Desert Eagle Observatory MPS 55889
2002 04 15.24519 13 18 39.25 +02 08 38.1 20.4 V 333 – Desert Eagle Observatory MPS 55889
2002 04 15.26909 13 18 38.19 +02 08 43.4 20.6 V 333 – Desert Eagle Observatory MPS 55889
2002 04 16.26183 13 17 53.11 +02 12 32.6 19.0   704 – Lincoln Laboratory ETS, New Mexico MPS 55096
2002 04 16.27587 13 17 52.53 +02 12 36.3 19.3   704 – Lincoln Laboratory ETS, New Mexico MPS 55096
2002 04 16.28991 13 17 51.85 +02 12 39.2 19.5   704 – Lincoln Laboratory ETS, New Mexico MPS 55096
2002 04 16.30394 13 17 51.16 +02 12 43.0 19.2   704 – Lincoln Laboratory ETS, New Mexico MPS 55096
2002 04 16.31798 13 17 50.50 +02 12 46.3 19.4   704 – Lincoln Laboratory ETS, New Mexico MPS 55096
2002 05 07.16806 13 04 19.47 +02 59 30.8 19.9   644 – Palomar Mountain/NEAT MPS 58972
2002 05 07.18832 13 04 18.84 +02 59 31.7 20.1   644 – Palomar Mountain/NEAT MPS 58972
2002 05 07.20951 13 04 18.16 +02 59 32.3 19.7   644 – Palomar Mountain/NEAT MPS 58972
2005 11 01.41709 05 10 02.96 +17 40 26.5 20.5 V G96 – Mt. Lemmon Survey MPS 165037
2005 11 01.42544 05 10 02.78 +17 40 26.2 20.3 V G96 – Mt. Lemmon Survey MPS 165037
2005 11 01.43380 05 10 02.53 +17 40 25.9 20.2 V G96 – Mt. Lemmon Survey MPS 165037
2005 11 01.44206 05 10 02.31 +17 40 25.5 20.2 V G96 – Mt. Lemmon Survey MPS 165037
2005 12 07.15144 04 43 49.04 +17 23 55.1 20.0 V 691 – Steward Observatory, Kitt Peak-Spacewatch MPS 165037
2005 12 07.17413 04 43 47.81 +17 23 54.5 19.7 V 691 – Steward Observatory, Kitt Peak-Spacewatch MPS 165037
2005 12 07.19674 04 43 46.58 +17 23 54.6 19.9 V 691 – Steward Observatory, Kitt Peak-Spacewatch MPS 165037
2006 02 25.12660 04 26 55.35 +19 36 05.5 20.8 V G96 – Mt. Lemmon Survey MPS 165037
2006 02 25.13232 04 26 55.57 +19 36 06.1 20.6 V G96 – Mt. Lemmon Survey MPS 165037
2006 02 25.13802 04 26 55.71 +19 36 07.0 20.8 V G96 – Mt. Lemmon Survey MPS 165037
2006 02 25.14376 04 26 55.96 +19 36 08.4 20.5 V G96 – Mt. Lemmon Survey MPS 165037
2007 02 22.26686 11 03 07.48 +14 27 40.9 18.8 V 703 – Catalina Sky Survey MPS 200313
2007 02 22.27235 11 03 07.20 +14 27 42.9 19.2 V 703 – Catalina Sky Survey MPS 200313
2007 02 22.27781 11 03 06.91 +14 27 44.7 19.5 V 703 – Catalina Sky Survey MPS 200313
2007 02 22.28330 11 03 06.66 +14 27 47.6 19.4 V 703 – Catalina Sky Survey MPS 200313
2007 02 25.26703 11 00 54.55 +14 46 57.4 18.8 R 699 – Lowell Observatory-LONEOS MPS 201464
2007 02 25.28532 11 00 53.59 +14 47 04.8   699 – Lowell Observatory-LONEOS MPS 201464
2007 02 25.30359 11 00 52.73 +14 47 11.8   699 – Lowell Observatory-LONEOS MPS 201464
2007 02 25.32189 11 00 51.92 +14 47 18.2   699 – Lowell Observatory-LONEOS MPS 201464
2007 02 26.20069 11 00 12.42 +14 52 52.5 19.3 V G96 – Mt. Lemmon Survey MPS 201464
2007 02 26.20690 11 00 12.16 +14 52 55.1 19.4 V G96 – Mt. Lemmon Survey MPS 201464
2007 02 26.21312 11 00 11.84 +14 52 57.5 19.1 V G96 – Mt. Lemmon Survey MPS 201464
2007 02 26.21943 11 00 11.55 +14 52 59.6 19.3 V G96 – Mt. Lemmon Survey MPS 201464
2007 03 09.33524 10 51 38.91 +15 58 10.9 19.4 V 703 – Catalina Sky Survey MPS 202819
2007 03 09.34022 10 51 38.73 +15 58 11.7 19.6 V 703 – Catalina Sky Survey MPS 202819
2007 03 09.35001 10 51 38.23 +15 58 15.3 19.2 V 703 – Catalina Sky Survey MPS 202819
2007 03 14.14023 10 48 04.00 +16 22 04.7 19.0 R 699 – Lowell Observatory-LONEOS MPS 204431
2007 03 14.15849 10 48 03.17 +16 22 10.4   699 – Lowell Observatory-LONEOS MPS 204431
2007 03 14.17676 10 48 02.34 +16 22 14.6   699 – Lowell Observatory-LONEOS MPS 204431
2007 03 14.19505 10 48 01.51 +16 22 19.7   699 – Lowell Observatory-LONEOS MPS 204431
2007 03 16.23356 10 46 33.67 +16 31 29.7 19.2 V 703 – Catalina Sky Survey MPS 204431
2007 03 16.23956 10 46 33.38 +16 31 30.8 19.0 V 703 – Catalina Sky Survey MPS 204431
2007 03 16.24556 10 46 33.13 +16 31 32.6 19.4 V 703 – Catalina Sky Survey MPS 204431
2007 03 16.25155 10 46 32.88 +16 31 34.5 19.5 V 703 – Catalina Sky Survey MPS 204431
2007 03 16.25738 10 46 32.62 +16 31 35.5 18.9 V 703 – Catalina Sky Survey MPS 204431
2007 03 16.26509 10 46 32.30 +16 31 37.0 19.3 V 703 – Catalina Sky Survey MPS 204431
2007 03 16.27280 10 46 31.90 +16 31 39.1 19.0 V 703 – Catalina Sky Survey MPS 204431
2007 03 16.28047 10 46 31.62 +16 31 40.9 19.3 V 703 – Catalina Sky Survey MPS 204431
2010 10 12.40903 03 17 54.88 +10 16 09.3 19.8 V G96 – Mt. Lemmon Survey MPS 353297
2010 10 12.41595 03 17 54.67 +10 16 08.0 19.9 V G96 – Mt. Lemmon Survey MPS 353297
2010 10 12.42288 03 17 54.42 +10 16 06.7 19.8 V G96 – Mt. Lemmon Survey MPS 353297
2010 10 12.42974 03 17 54.20 +10 16 05.6 19.9 V G96 – Mt. Lemmon Survey MPS 353297
2010 11 09.25304 02 57 57.70 +08 51 55.4 20.1 V 703 – Catalina Sky Survey MPS 357040
